Date,TemperatureHighF,TemperatureAvgF,TemperatureLowF,DewpointHighF,DewpointAvgF,DewpointLowF,HumidityHigh,HumidityAvg,HumidityLow,PressureMaxIn,PressureMinIn,WindSpeedMaxMPH,WindSpeedAvgMPH,GustSpeedMaxMPH,PrecipitationSumIn
2013-4-1,51.6,45.5,36.3,46.4,41.9,21.9,95,87,54,29.88,29.63,20,4,21,0.10
2013-4-2,42.8,36.4,29.5,22.8,17.9,10.8,74,49,29,30.08,29.88,27,6,29,0.00
2013-4-3,45.3,38.2,32.2,18.5,15.5,13.1,54,40,28,30.27,30.06,27,8,27,0.00
2013-4-4,43.3,37.9,27.1,34.3,24.5,15.1,78,59,42,30.40,30.14,16,3,18,0.00
2013-4-5,57.2,46.0,40.6,42.6,34.6,23.7,92,68,29,30.14,29.70,20,3,20,0.03
2013-4-6,46.8,39.6,30.6,29.7,20.4,7.7,85,48,21,30.36,29.95,25,5,25,0.00
2013-4-7,49.6,41.4,28.2,43.5,36.2,25.3,94,82,65,30.35,30.07,16,3,19,0.00
2013-4-8,60.6,51.1,45.9,46.9,44.9,43.2,91,80,57,30.10,30.01,11,3,11,0.00
2013-4-9,79.9,58.5,47.1,52.7,45.9,38.3,94,69,25,30.08,29.91,25,4,25,0.00
2013-4-10,65.5,52.4,47.8,52.0,46.9,44.4,92,82,61,30.06,29.83,25,4,26,0.07
2013-4-11,57.4,49.5,45.3,50.9,46.3,39.7,96,89,79,30.09,29.80,23,5,23,0.13
2013-4-12,45.9,42.9,40.6,41.4,39.5,36.5,95,88,74,30.10,29.73,33,8,37,1.17
2013-4-13,53.1,44.6,38.5,43.2,39.3,36.1,94,82,59,29.99,29.72,15,4,15,0.02
2013-4-14,56.7,49.7,44.2,44.6,36.1,26.2,92,63,35,30.24,29.99,25,4,29,0.00
2013-4-15,47.1,43.2,35.2,42.3,36.4,28.8,91,77,55,30.42,30.24,16,4,16,0.00
2013-4-16,53.1,48.9,44.1,48.9,45.4,41.5,92,88,79,30.42,30.17,21,5,22,0.00
2013-4-17,67.1,55.0,47.8,52.0,43.6,33.4,93,70,30,30.32,30.13,16,4,17,0.01
2013-4-18,52.5,48.1,38.8,49.3,42.6,37.0,95,82,63,30.41,30.15,25,6,25,0.00
2013-4-19,58.1,54.6,50.5,56.8,53.2,48.7,97,95,90,30.15,29.73,19,4,22,0.06
2013-4-20,57.6,51.7,45.3,56.7,43.5,30.7,97,76,41,30.25,29.69,20,4,21,0.35
2013-4-21,51.8,43.4,37.4,34.3,26.9,21.0,76,53,32,30.67,30.25,20,5,20,0.00
2013-4-22,49.3,43.8,34.3,39.9,35.4,30.2,88,73,56,30.69,30.52,26,6,26,0.00
2013-4-23,48.7,44.6,41.5,43.7,40.2,34.3,91,85,74,30.52,30.04,23,5,23,0.01
2013-4-24,57.2,48.5,43.9,47.5,43.7,40.3,96,84,64,30.06,29.93,20,5,22,0.00
2013-4-25,60.8,52.0,40.8,50.0,39.8,29.5,96,66,31,30.30,29.92,19,4,21,0.02
2013-4-26,58.6,47.7,35.1,46.9,40.5,32.9,94,77,51,30.42,30.29,12,2,12,0.00
2013-4-27,57.7,47.4,42.1,46.0,40.7,32.2,95,79,40,30.43,30.34,14,3,14,0.00
2013-4-28,56.7,49.9,42.1,48.2,43.5,37.0,96,80,51,30.36,30.26,14,3,14,0.00
2013-4-29,54.3,52.3,50.4,47.7,46.9,45.3,87,82,73,30.29,30.24,14,5,16,0.00
2013-4-30,56.1,51.8,40.5,46.9,43.0,35.8,87,73,51,30.36,30.25,16,4,17,0.00